This is the latest recevied weather packets stored in our database for station/object KB2AHZ. If no packets are shown the sender has not sent any weather packets the latest 10 day(s).
| Time | Temp. | Humidity | Pressure | Rain* | Wind** | Luminosity | Snow |
|---|---|---|---|---|---|---|---|
| 1777646229 | 15° C | 53% | 1017 hPa | 0 mm | - | 567 W/m² | - |
| 1777645927 | 14.44° C | 53% | 1017.1 hPa | 0 mm | - | 665 W/m² | - |
| 1777645623 | 14.44° C | 56% | 1016.8 hPa | 0 mm | - | 632 W/m² | - |
| 1777645319 | 14.44° C | 53% | 1016.9 hPa | 0 mm | - | 640 W/m² | - |
| 1777645015 | 13.89° C | 55% | 1016.8 hPa | 0 mm | - | 629 W/m² | - |
| 1777644713 | 14.44° C | 54% | 1017 hPa | 0 mm | - | 529 W/m² | - |
| 1777644409 | 13.89° C | 57% | 1017 hPa | 0 mm | - | 433 W/m² | - |
| 1777644106 | 13.89° C | 58% | 1017.1 hPa | 0 mm | - | 423 W/m² | - |
| 1777643802 | 13.89° C | 56% | 1017 hPa | 0 mm | - | 487 W/m² | - |
| 1777643500 | 13.89° C | 60% | 1017 hPa | 0 mm | - | 613 W/m² | - |
| 1777643196 | 13.89° C | 57% | 1017 hPa | 0 mm | - | 540 W/m² | - |
| 1777642893 | 13.89° C | 64% | 1017.1 hPa | 0 mm | - | 502 W/m² | - |
| 1777642590 | 13.89° C | 68% | 1016.9 hPa | 0 mm | - | 548 W/m² | - |
| 1777642286 | 13.33° C | 70% | 1017 hPa | 0 mm | - | 592 W/m² | - |
| 1777641983 | 12.78° C | 69% | 1017.3 hPa | 0 mm | - | 510 W/m² | - |
| 1777641679 | 12.78° C | 69% | 1017 hPa | 0 mm | - | 487 W/m² | - |
| 1777641374 | 12.22° C | 73% | 1017.1 hPa | 0 mm | - | 380 W/m² | - |
| 1777641070 | 12.22° C | 73% | 1017 hPa | 0 mm | - | 382 W/m² | - |
| 1777640765 | 12.22° C | 70% | 1017 hPa | 0 mm | - | 234 W/m² | - |
| 1777640462 | 12.22° C | 71% | 1017 hPa | 0 mm | - | 219 W/m² | - |
| 1777640154 | 11.11° C | 75% | 1017.3 hPa | 0 mm | - | 430 W/m² | - |
| 1777639850 | 11.11° C | 75% | 1017 hPa | 0 mm | - | 196 W/m² | - |
| 1777639548 | 11.11° C | 76% | 1017.1 hPa | 0 mm | - | 188 W/m² | - |
| 1777639244 | 11.11° C | 76% | 1017.1 hPa | 0 mm | - | 226 W/m² | - |
| 1777638940 | 10.56° C | 78% | 1017.1 hPa | 0 mm | - | 217 W/m² | - |
* Rain latest hour (hover to see other rain measurements)
** Current wind speed in m/s (hover to see current wind gust speed)